Location: Castellar de la Frontera
(36.3200°N, 5.4500°W)
Time: 06:16:18
(UTC+02:00)

ISS - Pass Details

Date: 15 July 2018
Orbit: 402 x 408 km, 51.6° (Epoch: 21 July)

Event Time Altitude Azimuth Distance (km) Brightness Sun altitude
Rises 06:33:42 0° 325° (NW) 2,331 0.0 -8.1°
Reaches altitude 10° 06:36:49 10° 357° (N) 1,469 -0.5 -7.6°
Maximum altitude 06:38:15 12° 23° (NNE) 1,339 -0.2 -7.3°
Drops below altitude 10° 06:39:42 10° 49° (NE) 1,468 0.7 -7.1°
Sets 06:42:48 0° 81° (E) 2,326 1.4 -6.6°
